STARLINK-32264, 61642

Orbit data source: Space-Track

STARLINK-32264, 61642 is a payload satellite owned by SpaceX/Seattle (US) in LEO that was launched on Wed, 23 Oct 2024 UTC via an FALCON 9 launch vehicle from the Air Force Eastern Test Range (AFETR). Payload-class satellites include a variety of spacecraft equipped with specific instruments for various scientific and technological missions. These include communications satellites like Starlink; space stations such as the ISS; scientific satellites like the Hubble; Earth observation satellites from companies like Planet Labs, Umbra, and HawkEye 360; GPS; miniature CubeSats for education and research; and military/defense satellites.

Loading next visibility...
Identifier
61642, 2024-191X
Orbit
LEO
Country
Flag of USUS
Related business
Manufacturer
SpaceX/Seattle
Mission
Operational Commercial Communications
Bus & Motor
STARLINK V2M, Unknown motor
Mass
730 kg wet, ~700 kg dry
Launch date (UTC)
2024-10-23 (1 year ago)
Launch vehicle
FALCON 9
Launch site
Air Force Eastern Test Range (AFETR)
Object type
Payload
Rocket body
Debris
Shape & HBR
Box + 2 Pan, 17.7 m
Radar Cross Section
33.884 m², Large (>1 m²)

Expand to show TLE details & history
Last TLE update: 1 day ago

TLE from 1 day ago
0 STARLINK-32264
1 61642U 24191X   25305.33634718 -.00009498  00000-0 -33573-3 0  9992
2 61642  43.0016 163.0812 0001469 272.6088  87.4595 15.27612038 57868
Epoch: 2025-11-01T08:04Z
TLE epoch observation values (Epoch: 2025-11-01T08:04:20.396Z)
Latitude
-0.00005°
Longitude
1.12828°
Altitude
482.684 km
Speed
7.626 km/s
True Right ascension
10h 52m 19s
True Declination
0° 00' 00"
Sunlit
Object was in daylight at epoch
Visualization orbit readout
Latitude
Unknown
Longitude
Unknown
Altitude
Unknown
Speed
Unknown
Apparent Right ascension
Unknown
Apparent Declination
Unknown
Sunlit
N/A
Visualization observer readout
Local Sidereal Time
12:13:36
Azimuth
Unknown
Elevation
Unknown
Doppler factor
Unknown
Orbital elements
Apogee altitude
485.906 km
Perigee altitude
483.89 km
Semi-major axis
6,863.035 km
Eccentricity
0.00015
Inclination
43.0016°
RAAN
163.0812°
Arg. of periapsis
272.6088°
True anomaly
87.47632°
Mean anomaly
87.4595°
Eccentric anomaly
87.46791°
Mean motion
3.81741 °/min
Orbital period
94.3 mins
BSTAR
-0.00033573
Loading maneuver chart data...
Computing Atmospheric mass density...
Loading historical data...
Loading historical data...
Loading historical data...
Loading historical data...
Loading historical data...
Loading historical data...
Loading historical data...

Documentation

Showing up to 5 results
|